Time,TemperatureF,DewpointF,PressureIn,WindDirection,WindDirectionDegrees,WindSpeedMPH,WindSpeedGustMPH,Humidity,HourlyPrecipIn,Conditions,Clouds,dailyrainin,SolarRadiationWatts/m^2,SoftwareType,DateUTC
2013-07-28 00:01:00,71.9,69.1,29.87,South,182,0.0,4.0,91,0.00,,CLR,0.00,0.00,VWS V14.01,2013-07-28 04:01:00,
2013-07-28 00:02:00,71.9,69.1,29.87,South,182,0.0,4.0,91,0.00,,CLR,0.00,0.00,VWS V14.01,2013-07-28 04:02:00,
2013-07-28 00:04:00,71.8,69.0,29.87,South,182,0.0,0.0,91,0.00,,CLR,0.00,0.00,VWS V14.01,2013-07-28 04:04:00,
2013-07-28 00:09:00,71.8,69.0,29.87,South,187,0.0,2.0,91,0.00,,CLR,0.00,0.00,VWS V14.01,2013-07-28 04:09:00,
2013-07-28 00:14:00,71.7,68.9,29.87,South,171,0.0,3.0,91,0.00,,CLR,0.00,0.00,VWS V14.01,2013-07-28 04:14:00,
2013-07-28 00:19:00,71.6,68.8,29.87,SSW,196,0.0,3.0,91,0.00,,CLR,0.00,0.00,VWS V14.01,2013-07-28 04:19:00,
2013-07-28 00:24:00,71.5,68.7,29.87,SSW,198,0.0,2.0,91,0.00,,CLR,0.00,0.00,VWS V14.01,2013-07-28 04:24:00,
2013-07-28 00:29:00,71.4,68.6,29.87,South,184,0.0,0.0,91,0.00,,CLR,0.00,0.00,VWS V14.01,2013-07-28 04:29:00,
2013-07-28 00:34:00,71.3,68.9,29.87,SSW,206,0.0,3.0,92,0.00,,CLR,0.00,0.00,VWS V14.01,2013-07-28 04:34:00,
2013-07-28 00:39:00,71.3,68.9,29.87,SSW,205,1.0,1.0,92,0.00,,CLR,0.00,0.00,VWS V14.01,2013-07-28 04:39:00,
2013-07-28 00:44:00,71.2,68.8,29.86,SSW,205,0.0,0.0,92,0.00,,CLR,0.00,0.00,VWS V14.01,2013-07-28 04:44:00,
2013-07-28 00:49:00,71.1,68.7,29.86,SSW,205,0.0,0.0,92,0.00,,CLR,0.00,0.00,VWS V14.01,2013-07-28 04:49:00,
2013-07-28 00:54:00,71.0,68.6,29.86,SSW,205,0.0,0.0,92,0.00,,CLR,0.00,0.00,VWS V14.01,2013-07-28 04:54:00,
2013-07-28 00:59:00,71.0,68.6,29.86,SSW,199,0.0,1.0,92,0.00,,CLR,0.00,0.00,VWS V14.01,2013-07-28 04:59:00,
2013-07-28 01:04:00,70.9,68.5,29.86,SSE,165,0.0,0.0,92,0.00,,CLR,0.00,0.00,VWS V14.01,2013-07-28 05:04:00,
2013-07-28 01:09:00,70.8,68.4,29.86,SSE,165,0.0,0.0,92,0.00,,CLR,0.00,0.00,VWS V14.01,2013-07-28 05:09:00,
2013-07-28 01:14:00,70.8,68.4,29.86,SSE,165,0.0,0.0,92,0.00,,CLR,0.00,0.00,VWS V14.01,2013-07-28 05:14:00,
2013-07-28 01:20:00,70.7,68.3,29.85,South,176,1.0,1.0,92,0.00,,CLR,0.00,0.00,VWS V14.01,2013-07-28 05:20:00,
2013-07-28 01:25:00,70.7,68.6,29.85,South,179,0.0,0.0,93,0.00,,CLR,0.00,0.00,VWS V14.01,2013-07-28 05:25:00,
2013-07-28 01:30:00,70.6,68.5,29.85,SSW,206,0.0,1.0,93,0.00,,CLR,0.00,0.00,VWS V14.01,2013-07-28 05:30:00,
2013-07-28 01:35:00,70.6,68.5,29.85,SW,221,0.0,1.0,93,0.00,,CLR,0.00,0.00,VWS V14.01,2013-07-28 05:35:00,
2013-07-28 01:40:00,70.6,68.5,29.85,SSE,154,0.0,1.0,93,0.00,,CLR,0.00,0.00,VWS V14.01,2013-07-28 05:40:00,
2013-07-28 01:45:00,70.6,68.5,29.85,SSE,164,0.0,1.0,93,0.00,,CLR,0.00,0.00,VWS V14.01,2013-07-28 05:45:00,
2013-07-28 01:50:00,70.6,68.5,29.85,SSW,200,0.0,4.0,93,0.00,,CLR,0.00,0.00,VWS V14.01,2013-07-28 05:50:00,
2013-07-28 01:55:00,70.5,68.4,29.85,South,184,0.0,1.0,93,0.00,,CLR,0.00,0.00,VWS V14.01,2013-07-28 05:55:00,
2013-07-28 02:00:00,70.5,68.4,29.85,South,169,0.0,2.0,93,0.00,,CLR,0.00,0.00,VWS V14.01,2013-07-28 06:00:00,
2013-07-28 02:05:00,70.5,68.4,29.84,South,184,0.0,0.0,93,0.00,,CLR,0.00,0.00,VWS V14.01,2013-07-28 06:05:00,
2013-07-28 02:10:00,70.4,68.3,29.85,SSW,195,0.0,1.0,93,0.00,,CLR,0.00,0.00,VWS V14.01,2013-07-28 06:10:00,
2013-07-28 02:15:00,70.4,68.3,29.85,South,187,0.0,0.0,93,0.00,,CLR,0.00,0.00,VWS V14.01,2013-07-28 06:15:00,
2013-07-28 02:20:00,70.4,68.6,29.85,SSW,199,0.0,0.0,94,0.00,,CLR,0.00,0.00,VWS V14.01,2013-07-28 06:20:00,
2013-07-28 02:25:00,70.4,68.6,29.85,SSW,198,0.0,1.0,94,0.00,,CLR,0.00,0.00,VWS V14.01,2013-07-28 06:25:00,
2013-07-28 02:31:00,70.4,68.6,29.85,SSW,198,0.0,0.0,94,0.00,,CLR,0.00,0.00,VWS V14.01,2013-07-28 06:31:00,
2013-07-28 02:36:00,70.4,68.6,29.85,SSW,198,0.0,0.0,94,0.00,,CLR,0.00,0.00,VWS V14.01,2013-07-28 06:36:00,
2013-07-28 02:41:00,70.4,68.6,29.85,SSW,198,0.0,0.0,94,0.00,,CLR,0.00,0.00,VWS V14.01,2013-07-28 06:41:00,
2013-07-28 02:46:00,70.3,68.5,29.85,SSW,198,0.0,0.0,94,0.00,,CLR,0.00,0.00,VWS V14.01,2013-07-28 06:46:00,
2013-07-28 02:51:00,70.3,68.5,29.85,SSW,198,0.0,0.0,94,0.00,,CLR,0.00,0.00,VWS V14.01,2013-07-28 06:51:00,
2013-07-28 02:56:00,70.2,68.4,29.85,SSW,198,0.0,0.0,94,0.00,,CLR,0.00,0.00,VWS V14.01,2013-07-28 06:56:00,
2013-07-28 03:01:00,70.2,68.4,29.85,SSW,198,0.0,0.0,94,0.00,,CLR,0.00,0.00,VWS V14.01,2013-07-28 07:01:00,
2013-07-28 03:07:00,70.1,68.3,29.84,SSW,198,0.0,1.0,94,0.00,,CLR,0.00,0.00,VWS V14.01,2013-07-28 07:07:00,
2013-07-28 03:12:00,70.1,68.3,29.84,SSW,198,0.0,0.0,94,0.00,,CLR,0.00,0.00,VWS V14.01,2013-07-28 07:12:00,
2013-07-28 03:17:00,70.0,68.2,29.84,SSW,198,0.0,0.0,94,0.00,,CLR,0.00,0.00,VWS V14.01,2013-07-28 07:17:00,
2013-07-28 03:22:00,69.9,68.1,29.84,SSW,198,0.0,0.0,94,0.00,,CLR,0.00,0.00,VWS V14.01,2013-07-28 07:22:00,
2013-07-28 03:27:00,69.9,68.1,29.83,SSW,198,0.0,0.0,94,0.00,,CLR,0.00,0.00,VWS V14.01,2013-07-28 07:27:00,
2013-07-28 03:32:00,69.9,68.1,29.83,South,187,2.0,2.0,94,0.00,,CLR,0.00,0.00,VWS V14.01,2013-07-28 07:32:00,
2013-07-28 03:37:00,69.9,68.1,29.83,South,187,0.0,0.0,94,0.00,,CLR,0.00,0.00,VWS V14.01,2013-07-28 07:37:00,
2013-07-28 03:42:00,69.8,68.0,29.83,South,187,0.0,0.0,94,0.00,,CLR,0.00,0.00,VWS V14.01,2013-07-28 07:42:00,
2013-07-28 03:47:00,69.7,67.9,29.83,South,187,0.0,0.0,94,0.00,,CLR,0.00,0.00,VWS V14.01,2013-07-28 07:47:00,
2013-07-28 03:52:00,69.7,67.9,29.84,South,187,0.0,0.0,94,0.00,,CLR,0.00,0.00,VWS V14.01,2013-07-28 07:52:00,
2013-07-28 03:57:00,69.6,67.8,29.84,South,187,0.0,0.0,94,0.00,,CLR,0.00,0.00,VWS V14.01,2013-07-28 07:57:00,
2013-07-28 04:02:00,69.5,67.7,29.84,South,187,0.0,0.0,94,0.00,,CLR,0.00,0.00,VWS V14.01,2013-07-28 08:02:00,
2013-07-28 04:08:00,69.5,68.0,29.84,South,187,0.0,1.0,95,0.00,,CLR,0.00,0.00,VWS V14.01,2013-07-28 08:08:00,
2013-07-28 04:13:00,69.4,67.9,29.84,South,187,0.0,1.0,95,0.00,,CLR,0.00,0.00,VWS V14.01,2013-07-28 08:13:00,
2013-07-28 04:18:00,69.4,67.9,29.84,South,187,0.0,1.0,95,0.00,,CLR,0.00,0.00,VWS V14.01,2013-07-28 08:18:00,
2013-07-28 04:23:00,69.4,67.9,29.84,South,186,0.0,1.0,95,0.00,,CLR,0.00,0.00,VWS V14.01,2013-07-28 08:23:00,
2013-07-28 04:28:00,69.4,67.9,29.84,South,185,0.0,1.0,95,0.00,,CLR,0.00,0.00,VWS V14.01,2013-07-28 08:28:00,
2013-07-28 04:33:00,69.4,67.9,29.84,South,185,0.0,1.0,95,0.00,,CLR,0.00,0.00,VWS V14.01,2013-07-28 08:33:00,
2013-07-28 04:39:00,69.4,67.9,29.84,SSE,153,0.0,2.0,95,0.00,,CLR,0.00,0.00,VWS V14.01,2013-07-28 08:39:00,
2013-07-28 04:44:00,69.4,67.9,29.84,SSE,154,0.0,1.0,95,0.00,,CLR,0.00,0.00,VWS V14.01,2013-07-28 08:44:00,
2013-07-28 04:48:00,69.4,67.9,29.84,SSE,153,0.0,1.0,95,0.00,,CLR,0.00,0.00,VWS V14.01,2013-07-28 08:48:00,
2013-07-28 04:53:00,69.4,68.2,29.84,SSE,152,0.0,2.0,96,0.00,,CLR,0.00,0.00,VWS V14.01,2013-07-28 08:53:00,
2013-07-28 04:58:00,69.5,68.3,29.84,SSE,152,0.0,1.0,96,0.00,,CLR,0.00,0.00,VWS V14.01,2013-07-28 08:58:00,
2013-07-28 05:04:00,69.5,68.3,29.84,SSE,153,0.0,0.0,96,0.00,,CLR,0.00,0.00,VWS V14.01,2013-07-28 09:04:00,
2013-07-28 05:09:00,69.5,68.3,29.84,SSE,152,0.0,1.0,96,0.00,,CLR,0.00,0.00,VWS V14.01,2013-07-28 09:09:00,
2013-07-28 05:14:00,69.4,68.2,29.84,SSE,152,0.0,0.0,96,0.00,,CLR,0.00,0.00,VWS V14.01,2013-07-28 09:14:00,
2013-07-28 05:19:00,69.4,68.2,29.84,SSE,153,0.0,0.0,96,0.00,,CLR,0.00,0.00,VWS V14.01,2013-07-28 09:19:00,
2013-07-28 05:24:00,69.4,68.2,29.84,SSE,153,1.0,1.0,96,0.00,,CLR,0.00,0.00,VWS V14.01,2013-07-28 09:24:00,
2013-07-28 05:29:00,69.4,68.2,29.85,SSE,152,0.0,0.0,96,0.00,,CLR,0.00,0.00,VWS V14.01,2013-07-28 09:29:00,
2013-07-28 05:34:00,69.4,68.2,29.84,SSE,153,0.0,1.0,96,0.00,,CLR,0.00,0.00,VWS V14.01,2013-07-28 09:34:00,
2013-07-28 05:39:00,69.4,68.2,29.84,SSE,153,0.0,0.0,96,0.00,,CLR,0.00,0.00,VWS V14.01,2013-07-28 09:39:00,
2013-07-28 05:44:00,69.4,68.2,29.85,SSE,167,0.0,1.0,96,0.00,,CLR,0.00,0.00,VWS V14.01,2013-07-28 09:44:00,
2013-07-28 05:49:00,69.4,68.2,29.85,South,169,0.0,0.0,96,0.00,,CLR,0.00,0.00,VWS V14.01,2013-07-28 09:49:00,
2013-07-28 05:54:00,69.4,68.2,29.85,South,178,0.0,0.0,96,0.00,,CLR,0.00,0.00,VWS V14.01,2013-07-28 09:54:00,
2013-07-28 05:59:00,69.4,68.2,29.85,South,178,0.0,0.0,96,0.00,,CLR,0.00,0.00,VWS V14.01,2013-07-28 09:59:00,
2013-07-28 06:04:00,69.4,68.2,29.85,South,178,0.0,0.0,96,0.00,,CLR,0.00,0.00,VWS V14.01,2013-07-28 10:04:00,
2013-07-28 06:09:00,69.5,68.3,29.86,SSE,164,0.0,1.0,96,0.00,,CLR,0.00,0.00,VWS V14.01,2013-07-28 10:09:00,
2013-07-28 06:14:00,69.6,68.4,29.86,SSE,149,0.0,4.0,96,0.00,,CLR,0.00,0.00,VWS V14.01,2013-07-28 10:14:00,
2013-07-28 06:20:00,69.6,68.4,29.86,SSE,149,0.0,1.0,96,0.00,,CLR,0.00,0.00,VWS V14.01,2013-07-28 10:20:00,
2013-07-28 06:25:00,69.6,68.4,29.86,SSE,149,0.0,0.0,96,0.00,,CLR,0.00,0.00,VWS V14.01,2013-07-28 10:25:00,
2013-07-28 06:30:00,69.7,68.5,29.86,SSE,150,0.0,2.0,96,0.00,,CLR,0.00,0.00,VWS V14.01,2013-07-28 10:30:00,
2013-07-28 06:35:00,69.8,68.6,29.86,SSW,194,1.0,1.0,96,0.00,,CLR,0.00,0.00,VWS V14.01,2013-07-28 10:35:00,
2013-07-28 06:40:00,69.8,68.6,29.86,SE,142,0.0,1.0,96,0.00,,CLR,0.00,5.00,VWS V14.01,2013-07-28 10:40:00,
2013-07-28 06:45:00,69.9,68.7,29.86,SSE,153,0.0,1.0,96,0.00,,CLR,0.00,11.00,VWS V14.01,2013-07-28 10:45:00,
2013-07-28 06:50:00,69.9,68.7,29.86,SW,227,2.0,4.0,96,0.00,,CLR,0.00,14.00,VWS V14.01,2013-07-28 10:50:00,
2013-07-28 06:55:00,70.0,68.8,29.86,SSW,204,0.0,2.0,96,0.00,,CLR,0.00,16.00,VWS V14.01,2013-07-28 10:55:00,
2013-07-28 07:00:00,70.1,68.6,29.86,SSW,192,0.0,2.0,95,0.00,,CLR,0.00,18.00,VWS V14.01,2013-07-28 11:00:00,
2013-07-28 07:05:00,70.1,68.6,29.86,SSW,200,0.0,0.0,95,0.00,,CLR,0.00,16.00,VWS V14.01,2013-07-28 11:05:00,
2013-07-28 07:10:00,70.2,68.7,29.87,South,183,0.0,1.0,95,0.00,,CLR,0.00,19.00,VWS V14.01,2013-07-28 11:10:00,
2013-07-28 07:15:00,70.2,68.7,29.87,SSW,195,0.0,6.0,95,0.00,,CLR,0.00,56.00,VWS V14.01,2013-07-28 11:15:00,
2013-07-28 07:21:00,70.3,68.8,29.87,SSW,199,0.0,1.0,95,0.00,,CLR,0.00,47.00,VWS V14.01,2013-07-28 11:21:00,
2013-07-28 07:26:00,70.4,68.9,29.87,SSE,160,0.0,2.0,95,0.00,,CLR,0.00,62.00,VWS V14.01,2013-07-28 11:26:00,
2013-07-28 07:31:00,70.5,69.0,29.87,SSW,192,0.0,5.0,95,0.00,,CLR,0.00,63.00,VWS V14.01,2013-07-28 11:31:00,
2013-07-28 07:36:00,70.5,69.0,29.87,SSW,196,0.0,2.0,95,0.00,,CLR,0.00,79.00,VWS V14.01,2013-07-28 11:36:00,
2013-07-28 07:41:00,70.6,69.1,29.88,SSW,198,0.0,1.0,95,0.00,,CLR,0.00,74.00,VWS V14.01,2013-07-28 11:41:00,
2013-07-28 07:46:00,70.7,69.2,29.88,SSW,205,1.0,2.0,95,0.00,,CLR,0.00,49.00,VWS V14.01,2013-07-28 11:46:00,
2013-07-28 07:51:00,70.7,69.2,29.88,SSW,210,0.0,5.0,95,0.00,,CLR,0.00,58.00,VWS V14.01,2013-07-28 11:51:00,
2013-07-28 07:57:00,70.8,69.3,29.88,SSW,205,0.0,3.0,95,0.00,,CLR,0.00,56.00,VWS V14.01,2013-07-28 11:57:00,
2013-07-28 08:02:00,70.8,69.3,29.88,SSW,205,0.0,2.0,95,0.00,,CLR,0.00,69.00,VWS V14.01,2013-07-28 12:02:00,
2013-07-28 08:07:00,70.9,69.4,29.88,NNW,348,0.0,1.0,95,0.00,,CLR,0.00,65.00,VWS V14.01,2013-07-28 12:07:00,
2013-07-28 08:12:00,70.9,69.4,29.88,West,259,0.0,1.0,95,0.00,,CLR,0.00,69.00,VWS V14.01,2013-07-28 12:12:00,
2013-07-28 08:17:00,71.0,69.5,29.88,West,259,0.0,2.0,95,0.00,,CLR,0.00,91.00,VWS V14.01,2013-07-28 12:17:00,
2013-07-28 08:22:00,71.0,69.5,29.87,West,259,0.0,1.0,95,0.00,,CLR,0.00,88.00,VWS V14.01,2013-07-28 12:22:00,
2013-07-28 08:27:00,71.1,69.6,29.86,SSW,193,0.0,1.0,95,0.00,,CLR,0.00,79.00,VWS V14.01,2013-07-28 12:27:00,
2013-07-28 08:33:00,71.2,69.7,29.87,South,177,0.0,0.0,95,0.00,,CLR,0.00,95.00,VWS V14.01,2013-07-28 12:33:00,
2013-07-28 08:38:00,71.3,69.8,29.87,SSE,165,0.0,1.0,95,0.00,,CLR,0.00,132.00,VWS V14.01,2013-07-28 12:38:00,
2013-07-28 08:43:00,71.3,69.8,29.87,South,190,0.0,1.0,95,0.00,,CLR,0.00,169.00,VWS V14.01,2013-07-28 12:43:00,
2013-07-28 08:48:00,71.6,70.4,29.87,SSW,204,3.0,3.0,96,0.00,,CLR,0.00,213.00,VWS V14.01,2013-07-28 12:48:00,
2013-07-28 08:53:00,71.8,70.3,29.87,SSW,204,0.0,2.0,95,0.00,,CLR,0.00,169.00,VWS V14.01,2013-07-28 12:53:00,
2013-07-28 08:58:00,71.8,70.3,29.87,SSE,166,1.0,3.0,95,0.00,,CLR,0.00,148.00,VWS V14.01,2013-07-28 12:58:00,
2013-07-28 09:03:00,71.7,70.2,29.87,SSW,208,0.0,4.0,95,0.00,,CLR,0.00,156.00,VWS V14.01,2013-07-28 13:03:00,
2013-07-28 09:07:00,71.8,70.3,29.86,SSE,151,0.0,2.0,95,0.00,,CLR,0.00,290.00,VWS V14.01,2013-07-28 13:07:00,
2013-07-28 09:12:00,72.2,70.7,29.86,SSE,151,0.0,1.0,95,0.00,,CLR,0.00,415.00,VWS V14.01,2013-07-28 13:12:00,
2013-07-28 09:17:00,73.0,71.5,29.86,South,188,0.0,3.0,95,0.00,,CLR,0.00,561.00,VWS V14.01,2013-07-28 13:17:00,
2013-07-28 09:23:00,73.7,71.9,29.86,SSW,192,3.0,6.0,94,0.00,,CLR,0.00,216.00,VWS V14.01,2013-07-28 13:23:00,
2013-07-28 09:28:00,73.5,70.7,29.87,SSW,198,0.0,7.0,91,0.00,,CLR,0.00,257.00,VWS V14.01,2013-07-28 13:28:00,
2013-07-28 09:33:00,73.6,70.8,29.86,SSW,203,3.0,5.0,91,0.00,,CLR,0.00,236.00,VWS V14.01,2013-07-28 13:33:00,
2013-07-28 09:38:00,73.4,70.3,29.86,SSW,195,2.0,7.0,90,0.00,,CLR,0.00,258.00,VWS V14.01,2013-07-28 13:38:00,
2013-07-28 09:43:00,73.5,70.4,29.87,SSW,209,1.0,7.0,90,0.00,,CLR,0.00,221.00,VWS V14.01,2013-07-28 13:43:00,
2013-07-28 09:48:00,73.6,70.5,29.87,SW,214,0.0,3.0,90,0.00,,CLR,0.00,225.00,VWS V14.01,2013-07-28 13:48:00,
2013-07-28 09:53:00,73.8,70.7,29.87,SW,232,2.0,5.0,90,0.00,,CLR,0.00,209.00,VWS V14.01,2013-07-28 13:53:00,
2013-07-28 09:58:00,73.7,70.3,29.87,SSW,213,0.0,6.0,89,0.00,,CLR,0.00,243.00,VWS V14.01,2013-07-28 13:58:00,
2013-07-28 10:03:00,73.8,70.7,29.86,SW,215,0.0,5.0,90,0.00,,CLR,0.00,199.00,VWS V14.01,2013-07-28 14:03:00,
2013-07-28 10:08:00,73.9,70.5,29.86,SSW,202,0.0,4.0,89,0.00,,CLR,0.00,237.00,VWS V14.01,2013-07-28 14:08:00,
2013-07-28 10:13:00,74.0,70.6,29.86,WSW,237,0.0,5.0,89,0.00,,CLR,0.00,169.00,VWS V14.01,2013-07-28 14:13:00,
2013-07-28 10:18:00,74.0,70.2,29.86,WNW,293,1.0,4.0,88,0.00,,CLR,0.00,81.00,VWS V14.01,2013-07-28 14:18:00,
2013-07-28 10:24:00,73.9,70.1,29.86,NW,307,0.0,1.0,88,0.00,,CLR,0.00,130.00,VWS V14.01,2013-07-28 14:24:00,
2013-07-28 10:29:00,73.9,70.1,29.87,NW,306,0.0,2.0,88,0.00,,CLR,0.00,216.00,VWS V14.01,2013-07-28 14:29:00,
2013-07-28 10:34:00,73.9,70.1,29.87,North,355,0.0,5.0,88,0.00,,CLR,0.00,248.00,VWS V14.01,2013-07-28 14:34:00,
2013-07-28 10:39:00,74.1,70.3,29.87,NW,321,2.0,5.0,88,0.00,,CLR,0.00,283.00,VWS V14.01,2013-07-28 14:39:00,
2013-07-28 10:44:00,74.2,70.4,29.87,NNW,333,0.0,3.0,88,0.00,,CLR,0.00,232.00,VWS V14.01,2013-07-28 14:44:00,
2013-07-28 10:49:00,74.2,70.1,29.88,NW,309,2.0,5.0,87,0.00,,CLR,0.00,227.00,VWS V14.01,2013-07-28 14:49:00,
2013-07-28 10:54:00,74.2,70.1,29.88,NNW,340,0.0,0.0,87,0.00,,CLR,0.00,246.00,VWS V14.01,2013-07-28 14:54:00,
2013-07-28 10:59:00,74.2,70.1,29.88,NW,317,1.0,3.0,87,0.00,,CLR,0.00,264.00,VWS V14.01,2013-07-28 14:59:00,
2013-07-28 11:04:00,74.2,69.8,29.88,NW,322,4.0,4.0,86,0.00,,CLR,0.00,260.00,VWS V14.01,2013-07-28 15:04:00,
2013-07-28 11:09:00,74.0,69.2,29.88,NNW,341,0.0,0.0,85,0.00,,CLR,0.00,211.00,VWS V14.01,2013-07-28 15:09:00,
2013-07-28 11:14:00,73.9,69.4,29.88,NW,321,0.0,1.0,86,0.00,,CLR,0.00,225.00,VWS V14.01,2013-07-28 15:14:00,
2013-07-28 11:19:00,73.9,69.8,29.88,NW,321,0.0,0.0,87,0.00,,CLR,0.00,253.00,VWS V14.01,2013-07-28 15:19:00,
2013-07-28 11:24:00,73.9,69.8,29.87,NW,321,0.0,1.0,87,0.00,,CLR,0.00,260.00,VWS V14.01,2013-07-28 15:24:00,
2013-07-28 11:29:00,74.1,70.0,29.87,North,355,0.0,0.0,87,0.00,,CLR,0.00,264.00,VWS V14.01,2013-07-28 15:29:00,
2013-07-28 11:34:00,74.2,69.8,29.87,ESE,102,0.0,1.0,86,0.00,,CLR,0.00,241.00,VWS V14.01,2013-07-28 15:34:00,
2013-07-28 11:39:00,74.2,69.1,29.88,ESE,102,0.0,0.0,84,0.00,,CLR,0.00,272.00,VWS V14.01,2013-07-28 15:39:00,
2013-07-28 11:44:00,74.4,69.3,29.88,ENE,65,1.0,1.0,84,0.00,,CLR,0.00,336.00,VWS V14.01,2013-07-28 15:44:00,
2013-07-28 11:49:00,74.7,69.2,29.88,NW,325,0.0,3.0,83,0.00,,CLR,0.00,396.00,VWS V14.01,2013-07-28 15:49:00,
2013-07-28 11:55:00,75.0,68.8,29.88,North,5,1.0,1.0,81,0.00,,CLR,0.00,547.00,VWS V14.01,2013-07-28 15:55:00,
2013-07-28 12:00:00,75.4,68.1,29.88,NW,317,0.0,2.0,78,0.00,,CLR,0.00,446.00,VWS V14.01,2013-07-28 16:00:00,
2013-07-28 12:05:00,75.6,67.5,29.89,NW,321,0.0,1.0,76,0.00,,CLR,0.00,439.00,VWS V14.01,2013-07-28 16:05:00,
2013-07-28 12:10:00,75.7,68.0,29.89,NW,311,0.0,2.0,77,0.00,,CLR,0.00,376.00,VWS V14.01,2013-07-28 16:10:00,
2013-07-28 12:15:00,75.9,68.6,29.89,NNW,348,0.0,1.0,78,0.00,,CLR,0.00,425.00,VWS V14.01,2013-07-28 16:15:00,
2013-07-28 12:20:00,76.3,68.2,29.89,NW,323,2.0,3.0,76,0.00,,CLR,0.00,552.00,VWS V14.01,2013-07-28 16:20:00,
2013-07-28 12:25:00,76.7,68.2,29.89,NW,323,1.0,2.0,75,0.00,,CLR,0.00,754.00,VWS V14.01,2013-07-28 16:25:00,
2013-07-28 12:30:00,76.9,68.8,29.89,WNW,302,0.0,2.0,76,0.00,,CLR,0.00,494.00,VWS V14.01,2013-07-28 16:30:00,
2013-07-28 12:35:00,77.1,68.6,29.89,North,355,3.0,4.0,75,0.00,,CLR,0.00,446.00,VWS V14.01,2013-07-28 16:35:00,
2013-07-28 12:40:00,77.2,69.1,29.89,North,350,1.0,1.0,76,0.00,,CLR,0.00,341.00,VWS V14.01,2013-07-28 16:40:00,
2013-07-28 12:45:00,77.1,68.2,29.89,West,260,0.0,4.0,74,0.00,,CLR,0.00,325.00,VWS V14.01,2013-07-28 16:45:00,
2013-07-28 12:50:00,77.1,69.0,29.89,West,260,0.0,1.0,76,0.00,,CLR,0.00,207.00,VWS V14.01,2013-07-28 16:50:00,
2013-07-28 12:55:00,76.8,68.7,29.89,West,260,0.0,0.0,76,0.00,,CLR,0.00,204.00,VWS V14.01,2013-07-28 16:55:00,
2013-07-28 13:00:00,76.5,68.4,29.90,West,259,0.0,0.0,76,0.00,,CLR,0.00,178.00,VWS V14.01,2013-07-28 17:00:00,
2013-07-28 13:05:00,76.2,68.1,29.90,West,259,0.0,0.0,76,0.00,,CLR,0.00,169.00,VWS V14.01,2013-07-28 17:05:00,
2013-07-28 13:10:00,76.0,67.5,29.90,West,259,0.0,0.0,75,0.00,,CLR,0.00,169.00,VWS V14.01,2013-07-28 17:10:00,
2013-07-28 13:16:00,75.9,67.8,29.90,West,259,0.0,0.0,76,0.00,,CLR,0.00,149.00,VWS V14.01,2013-07-28 17:16:00,
2013-07-28 13:21:00,75.9,68.2,29.90,West,259,0.0,0.0,77,0.00,,CLR,0.00,206.00,VWS V14.01,2013-07-28 17:21:00,
2013-07-28 13:26:00,76.0,67.9,29.89,West,259,0.0,0.0,76,0.00,,CLR,0.00,236.00,VWS V14.01,2013-07-28 17:26:00,
2013-07-28 13:31:00,76.1,68.8,29.89,West,259,0.0,0.0,78,0.00,,CLR,0.00,313.00,VWS V14.01,2013-07-28 17:31:00,
2013-07-28 13:36:00,76.6,69.6,29.89,WSW,257,0.0,1.0,79,0.00,,CLR,0.00,461.00,VWS V14.01,2013-07-28 17:36:00,
2013-07-28 13:41:00,77.4,70.0,29.89,WSW,258,0.0,1.0,78,0.00,,CLR,0.00,501.00,VWS V14.01,2013-07-28 17:41:00,
2013-07-28 13:47:00,78.0,69.4,29.89,ESE,110,0.0,2.0,75,0.00,,CLR,0.00,582.00,VWS V14.01,2013-07-28 17:47:00,
2013-07-28 13:52:00,78.6,70.0,29.89,South,188,0.0,2.0,75,0.00,,CLR,0.00,585.00,VWS V14.01,2013-07-28 17:52:00,
2013-07-28 13:57:00,78.9,69.9,29.89,WNW,293,0.0,1.0,74,0.00,,CLR,0.00,1216.00,VWS V14.01,2013-07-28 17:57:00,
2013-07-28 14:02:00,79.3,69.9,29.89,NNW,333,0.0,6.0,73,0.00,,CLR,0.00,1104.00,VWS V14.01,2013-07-28 18:02:00,
2013-07-28 14:07:00,79.4,69.6,29.89,SSE,156,0.0,2.0,72,0.00,,CLR,0.00,1034.00,VWS V14.01,2013-07-28 18:07:00,
2013-07-28 14:12:00,79.4,69.6,29.89,SSE,155,0.0,1.0,72,0.00,,CLR,0.00,988.00,VWS V14.01,2013-07-28 18:12:00,
2013-07-28 14:17:00,80.6,71.2,29.89,SSE,152,0.0,1.0,73,0.00,,CLR,0.00,972.00,VWS V14.01,2013-07-28 18:17:00,
2013-07-28 14:22:00,80.6,71.2,29.88,SW,219,1.0,5.0,73,0.00,,CLR,0.00,928.00,VWS V14.01,2013-07-28 18:22:00,
2013-07-28 14:27:00,80.4,71.4,29.88,SSE,165,1.0,3.0,74,0.00,,CLR,0.00,976.00,VWS V14.01,2013-07-28 18:27:00,
2013-07-28 14:32:00,80.2,70.8,29.88,SSW,211,0.0,4.0,73,0.00,,CLR,0.00,907.00,VWS V14.01,2013-07-28 18:32:00,
2013-07-28 14:37:00,80.3,70.9,29.88,South,190,0.0,3.0,73,0.00,,CLR,0.00,912.00,VWS V14.01,2013-07-28 18:37:00,
2013-07-28 14:42:00,80.4,70.1,29.88,WSW,241,1.0,3.0,71,0.00,,CLR,0.00,849.00,VWS V14.01,2013-07-28 18:42:00,
2013-07-28 14:48:00,80.4,71.0,29.87,South,183,0.0,3.0,73,0.00,,CLR,0.00,846.00,VWS V14.01,2013-07-28 18:48:00,
2013-07-28 14:53:00,80.8,71.3,29.87,WSW,249,0.0,6.0,73,0.00,,CLR,0.00,865.00,VWS V14.01,2013-07-28 18:53:00,
2013-07-28 14:58:00,81.2,70.1,29.87,SW,218,1.0,5.0,69,0.00,,CLR,0.00,854.00,VWS V14.01,2013-07-28 18:58:00,
2013-07-28 15:03:00,80.9,69.4,29.87,SSW,203,1.0,6.0,68,0.00,,CLR,0.00,884.00,VWS V14.01,2013-07-28 19:03:00,
2013-07-28 15:08:00,81.2,70.5,29.86,SSE,156,0.0,1.0,70,0.00,,CLR,0.00,888.00,VWS V14.01,2013-07-28 19:08:00,
2013-07-28 15:13:00,81.4,69.8,29.86,SE,126,0.0,2.0,68,0.00,,CLR,0.00,911.00,VWS V14.01,2013-07-28 19:13:00,
2013-07-28 15:18:00,81.7,69.2,29.86,SE,126,0.0,1.0,66,0.00,,CLR,0.00,323.00,VWS V14.01,2013-07-28 19:18:00,
2013-07-28 15:23:00,81.3,68.9,29.86,SSW,194,0.0,2.0,66,0.00,,CLR,0.00,250.00,VWS V14.01,2013-07-28 19:23:00,
2013-07-28 15:28:00,81.2,69.6,29.86,SSW,210,2.0,4.0,68,0.00,,CLR,0.00,777.00,VWS V14.01,2013-07-28 19:28:00,
2013-07-28 15:33:00,81.6,68.2,29.86,SSW,209,0.0,4.0,64,0.00,,CLR,0.00,812.00,VWS V14.01,2013-07-28 19:33:00,
2013-07-28 15:38:00,81.5,69.1,29.86,SSW,209,0.0,1.0,66,0.00,,CLR,0.00,779.00,VWS V14.01,2013-07-28 19:38:00,
2013-07-28 15:43:00,81.4,68.5,29.86,South,185,0.0,3.0,65,0.00,,CLR,0.00,615.00,VWS V14.01,2013-07-28 19:43:00,
2013-07-28 15:49:00,81.5,69.1,29.86,South,178,0.0,4.0,66,0.00,,CLR,0.00,615.00,VWS V14.01,2013-07-28 19:49:00,
2013-07-28 15:54:00,82.0,68.2,29.86,South,180,0.0,4.0,63,0.00,,CLR,0.00,853.00,VWS V14.01,2013-07-28 19:54:00,
2013-07-28 15:59:00,82.4,68.6,29.85,SSE,152,0.0,3.0,63,0.00,,CLR,0.00,775.00,VWS V14.01,2013-07-28 19:59:00,
2013-07-28 16:04:00,82.2,68.4,29.85,South,190,0.0,0.0,63,0.00,,CLR,0.00,524.00,VWS V14.01,2013-07-28 20:04:00,
2013-07-28 16:09:00,81.9,69.0,29.85,SW,221,0.0,1.0,65,0.00,,CLR,0.00,464.00,VWS V14.01,2013-07-28 20:09:00,
2013-07-28 16:14:00,81.7,68.8,29.85,SSW,206,1.0,1.0,65,0.00,,CLR,0.00,418.00,VWS V14.01,2013-07-28 20:14:00,
2013-07-28 16:19:00,81.3,68.9,29.85,SSE,152,3.0,3.0,66,0.00,,CLR,0.00,390.00,VWS V14.01,2013-07-28 20:19:00,
2013-07-28 16:24:00,81.1,69.1,29.85,SSE,152,0.0,0.0,67,0.00,,CLR,0.00,441.00,VWS V14.01,2013-07-28 20:24:00,
2013-07-28 16:29:00,81.2,69.2,29.85,SSW,211,2.0,2.0,67,0.00,,CLR,0.00,397.00,VWS V14.01,2013-07-28 20:29:00,
2013-07-28 16:34:00,81.2,69.2,29.85,SW,222,0.0,3.0,67,0.00,,CLR,0.00,519.00,VWS V14.01,2013-07-28 20:34:00,
2013-07-28 16:40:00,81.4,68.5,29.85,SSW,205,0.0,2.0,65,0.00,,CLR,0.00,744.00,VWS V14.01,2013-07-28 20:40:00,
2013-07-28 16:45:00,82.2,69.7,29.85,SSW,210,1.0,1.0,66,0.00,,CLR,0.00,693.00,VWS V14.01,2013-07-28 20:45:00,
2013-07-28 16:50:00,82.7,68.8,29.85,SW,232,2.0,3.0,63,0.00,,CLR,0.00,671.00,VWS V14.01,2013-07-28 20:50:00,
2013-07-28 16:55:00,82.9,68.6,29.85,SSE,164,0.0,0.0,62,0.00,,CLR,0.00,547.00,VWS V14.01,2013-07-28 20:55:00,
2013-07-28 16:56:00,82.9,69.0,29.85,SSE,163,0.0,1.0,63,0.00,,CLR,0.00,631.00,VWS V14.01,2013-07-28 20:56:00,
2013-07-28 17:01:00,83.1,69.7,29.85,SSE,159,2.0,2.0,64,0.00,,CLR,0.00,606.00,VWS V14.01,2013-07-28 21:01:00,
2013-07-28 17:06:00,83.3,69.4,29.85,South,183,0.0,3.0,63,0.00,,CLR,0.00,591.00,VWS V14.01,2013-07-28 21:06:00,
2013-07-28 17:11:00,83.4,69.9,29.85,SSW,209,2.0,2.0,64,0.00,,CLR,0.00,568.00,VWS V14.01,2013-07-28 21:11:00,
2013-07-28 17:17:00,83.3,68.5,29.85,SSW,195,0.0,0.0,61,0.00,,CLR,0.00,548.00,VWS V14.01,2013-07-28 21:17:00,
2013-07-28 17:22:00,83.5,69.6,29.85,South,186,0.0,3.0,63,0.00,,CLR,0.00,538.00,VWS V14.01,2013-07-28 21:22:00,
2013-07-28 17:27:00,83.4,69.5,29.85,South,191,0.0,3.0,63,0.00,,CLR,0.00,97.00,VWS V14.01,2013-07-28 21:27:00,
2013-07-28 17:32:00,82.9,68.6,29.85,SSW,211,0.0,4.0,62,0.00,,CLR,0.00,524.00,VWS V14.01,2013-07-28 21:32:00,
2013-07-28 17:37:00,83.0,69.1,29.85,SSE,155,0.0,2.0,63,0.00,,CLR,0.00,501.00,VWS V14.01,2013-07-28 21:37:00,
2013-07-28 17:42:00,82.9,69.0,29.85,SE,132,0.0,1.0,63,0.00,,CLR,0.00,487.00,VWS V14.01,2013-07-28 21:42:00,
2013-07-28 17:47:00,83.0,68.7,29.85,South,178,0.0,1.0,62,0.00,,CLR,0.00,483.00,VWS V14.01,2013-07-28 21:47:00,
2013-07-28 17:52:00,83.1,69.7,29.85,SSW,203,0.0,5.0,64,0.00,,CLR,0.00,441.00,VWS V14.01,2013-07-28 21:52:00,
2013-07-28 17:57:00,83.1,68.7,29.85,SW,221,0.0,5.0,62,0.00,,CLR,0.00,424.00,VWS V14.01,2013-07-28 21:57:00,
2013-07-28 18:02:00,83.1,69.2,29.85,SSW,198,0.0,6.0,63,0.00,,CLR,0.00,404.00,VWS V14.01,2013-07-28 22:02:00,
2013-07-28 18:07:00,83.0,69.6,29.85,South,179,1.0,1.0,64,0.00,,CLR,0.00,385.00,VWS V14.01,2013-07-28 22:07:00,
2013-07-28 18:12:00,83.0,69.6,29.85,SSE,149,0.0,3.0,64,0.00,,CLR,0.00,376.00,VWS V14.01,2013-07-28 22:12:00,
2013-07-28 18:17:00,83.0,69.1,29.85,South,187,0.0,8.0,63,0.00,,CLR,0.00,360.00,VWS V14.01,2013-07-28 22:17:00,
2013-07-28 18:22:00,82.8,69.4,29.85,SSW,205,1.0,4.0,64,0.00,,CLR,0.00,341.00,VWS V14.01,2013-07-28 22:22:00,
2013-07-28 18:27:00,82.5,69.1,29.85,South,184,0.0,4.0,64,0.00,,CLR,0.00,325.00,VWS V14.01,2013-07-28 22:27:00,
2013-07-28 18:33:00,82.2,68.4,29.85,SSW,209,0.0,3.0,63,0.00,,CLR,0.00,37.00,VWS V14.01,2013-07-28 22:33:00,
2013-07-28 18:38:00,82.0,69.1,29.85,South,178,0.0,1.0,65,0.00,,CLR,0.00,26.00,VWS V14.01,2013-07-28 22:38:00,
2013-07-28 18:43:00,81.5,69.1,29.85,South,178,0.0,1.0,66,0.00,,CLR,0.00,28.00,VWS V14.01,2013-07-28 22:43:00,
2013-07-28 18:48:00,81.2,68.8,29.85,SSE,151,0.0,3.0,66,0.00,,CLR,0.00,32.00,VWS V14.01,2013-07-28 22:48:00,
2013-07-28 18:53:00,80.8,68.8,29.86,SSE,151,0.0,0.0,67,0.00,,CLR,0.00,35.00,VWS V14.01,2013-07-28 22:53:00,
2013-07-28 18:58:00,80.4,68.4,29.86,SSE,150,0.0,0.0,67,0.00,,CLR,0.00,32.00,VWS V14.01,2013-07-28 22:58:00,
2013-07-28 19:03:00,80.2,68.7,29.86,SSE,151,0.0,0.0,68,0.00,,CLR,0.00,28.00,VWS V14.01,2013-07-28 23:03:00,
2013-07-28 19:08:00,80.0,68.9,29.85,SSE,150,0.0,0.0,69,0.00,,CLR,0.00,32.00,VWS V14.01,2013-07-28 23:08:00,
2013-07-28 19:13:00,79.8,68.7,29.85,SSE,151,0.0,0.0,69,0.00,,CLR,0.00,21.00,VWS V14.01,2013-07-28 23:13:00,
2013-07-28 19:18:00,79.5,68.9,29.85,SSE,150,0.0,0.0,70,0.00,,CLR,0.00,23.00,VWS V14.01,2013-07-28 23:18:00,
2013-07-28 19:23:00,79.3,69.1,29.85,SSE,151,0.0,0.0,71,0.00,,CLR,0.00,12.00,VWS V14.01,2013-07-28 23:23:00,
2013-07-28 19:28:00,79.0,69.2,29.85,SE,132,0.0,1.0,72,0.00,,CLR,0.00,12.00,VWS V14.01,2013-07-28 23:28:00,
2013-07-28 19:33:00,78.6,69.2,29.85,ENE,57,0.0,1.0,73,0.00,,CLR,0.00,11.00,VWS V14.01,2013-07-28 23:33:00,
2013-07-28 19:38:00,78.1,69.1,29.86,NNE,29,0.0,1.0,74,0.00,,CLR,0.00,9.00,VWS V14.01,2013-07-28 23:38:00,
2013-07-28 19:43:00,77.6,69.1,29.86,North,9,0.0,1.0,75,0.00,,CLR,0.00,9.00,VWS V14.01,2013-07-28 23:43:00,
2013-07-28 19:49:00,77.1,69.0,29.86,NNW,341,0.0,2.0,76,0.00,,CLR,0.00,18.00,VWS V14.01,2013-07-28 23:49:00,
2013-07-28 19:54:00,76.7,68.6,29.86,North,355,0.0,0.0,76,0.00,,CLR,0.00,28.00,VWS V14.01,2013-07-28 23:54:00,
2013-07-28 19:59:00,76.4,68.7,29.87,North,355,0.0,1.0,77,0.00,,CLR,0.00,19.00,VWS V14.01,2013-07-28 23:59:00,
2013-07-28 20:04:00,76.2,68.5,29.87,North,355,0.0,0.0,77,0.00,,CLR,0.00,23.00,VWS V14.01,2013-07-29 00:04:00,
2013-07-28 20:09:00,76.1,68.4,29.87,North,355,0.0,0.0,77,0.00,,CLR,0.00,18.00,VWS V14.01,2013-07-29 00:09:00,
2013-07-28 20:14:00,76.0,68.3,29.87,North,355,0.0,0.0,77,0.00,,CLR,0.00,14.00,VWS V14.01,2013-07-29 00:14:00,
2013-07-28 20:19:00,76.0,68.3,29.87,North,355,0.0,0.0,77,0.00,,CLR,0.00,7.00,VWS V14.01,2013-07-29 00:19:00,
2013-07-28 20:24:00,75.9,68.6,29.86,North,355,0.0,0.0,78,0.00,,CLR,0.00,0.00,VWS V14.01,2013-07-29 00:24:00,
2013-07-28 20:29:00,75.8,68.8,29.88,NNW,338,0.0,0.0,79,0.00,,CLR,0.00,0.00,VWS V14.01,2013-07-29 00:29:00,
2013-07-28 20:34:00,75.6,69.0,29.90,NW,311,0.0,1.0,80,0.03,,CLR,0.03,0.00,VWS V14.01,2013-07-29 00:34:00,
2013-07-28 20:39:00,74.7,68.5,29.91,West,260,0.0,9.0,81,0.27,,CLR,0.27,0.00,VWS V14.01,2013-07-29 00:39:00,
2013-07-28 20:44:00,71.5,65.4,29.91,WSW,242,0.0,3.0,81,0.66,,CLR,0.66,0.00,VWS V14.01,2013-07-29 00:44:00,
2013-07-28 20:49:00,70.1,64.7,29.91,ENE,68,0.0,0.0,83,0.80,,CLR,0.80,0.00,VWS V14.01,2013-07-29 00:49:00,
2013-07-28 20:54:00,68.7,64.3,29.90,ESE,105,3.0,4.0,86,0.87,,CLR,0.87,0.00,VWS V14.01,2013-07-29 00:54:00,
2013-07-28 20:59:00,67.6,64.2,29.90,SE,146,2.0,5.0,89,0.88,,CLR,0.88,0.00,VWS V14.01,2013-07-29 00:59:00,
2013-07-28 21:04:00,67.0,64.0,29.90,SE,135,0.0,0.0,90,0.89,,CLR,0.89,0.00,VWS V14.01,2013-07-29 01:04:00,
2013-07-28 21:09:00,66.7,64.0,29.90,SE,136,0.0,1.0,91,0.89,,CLR,0.89,0.00,VWS V14.01,2013-07-29 01:09:00,
2013-07-28 21:15:00,66.5,64.1,29.92,South,180,0.0,0.0,92,0.89,,CLR,0.89,0.00,VWS V14.01,2013-07-29 01:15:00,
2013-07-28 21:20:00,66.4,64.3,29.92,South,180,0.0,0.0,93,0.89,,CLR,0.89,0.00,VWS V14.01,2013-07-29 01:20:00,
2013-07-28 21:27:00,66.2,64.1,29.92,South,180,0.0,0.0,93,0.89,,CLR,0.89,0.00,VWS V14.01,2013-07-29 01:27:00,
2013-07-28 21:32:00,66.2,64.4,29.92,South,180,0.0,0.0,94,0.89,,CLR,0.89,0.00,VWS V14.01,2013-07-29 01:32:00,
2013-07-28 21:37:00,66.2,64.4,29.92,South,180,1.0,1.0,94,0.88,,CLR,0.89,0.00,VWS V14.01,2013-07-29 01:37:00,
2013-07-28 21:43:00,66.2,64.7,29.92,South,180,0.0,0.0,95,0.64,,CLR,0.89,0.00,VWS V14.01,2013-07-29 01:43:00,
2013-07-28 21:48:00,66.2,64.7,29.92,South,180,0.0,1.0,95,0.28,,CLR,0.89,0.00,VWS V14.01,2013-07-29 01:48:00,
2013-07-28 21:53:00,66.2,64.7,29.92,NW,306,0.0,1.0,95,0.10,,CLR,0.89,0.00,VWS V14.01,2013-07-29 01:53:00,
2013-07-28 21:58:00,66.1,64.6,29.93,NW,306,0.0,1.0,95,0.03,,CLR,0.89,0.00,VWS V14.01,2013-07-29 01:58:00,
2013-07-28 22:03:00,66.0,64.5,29.93,NW,306,0.0,0.0,95,0.01,,CLR,0.89,0.00,VWS V14.01,2013-07-29 02:03:00,
2013-07-28 22:08:00,65.9,64.7,29.93,NW,306,0.0,1.0,96,0.00,,CLR,0.89,0.00,VWS V14.01,2013-07-29 02:08:00,
2013-07-28 22:13:00,65.8,64.6,29.93,NW,306,0.0,0.0,96,0.00,,CLR,0.89,0.00,VWS V14.01,2013-07-29 02:13:00,
2013-07-28 22:19:00,65.8,64.6,29.94,NW,306,0.0,0.0,96,0.00,,CLR,0.89,0.00,VWS V14.01,2013-07-29 02:19:00,
2013-07-28 22:24:00,65.7,64.5,29.94,NW,306,0.0,0.0,96,0.00,,CLR,0.89,0.00,VWS V14.01,2013-07-29 02:24:00,
2013-07-28 22:29:00,65.6,64.4,29.94,NW,306,0.0,0.0,96,0.00,,CLR,0.89,0.00,VWS V14.01,2013-07-29 02:29:00,
2013-07-28 22:34:00,65.5,64.3,29.94,NW,306,0.0,0.0,96,0.00,,CLR,0.89,0.00,VWS V14.01,2013-07-29 02:34:00,
2013-07-28 22:39:00,65.4,64.2,29.94,NW,306,0.0,0.0,96,0.00,,CLR,0.89,0.00,VWS V14.01,2013-07-29 02:39:00,
2013-07-28 22:44:00,65.3,64.1,29.94,NW,306,0.0,0.0,96,0.00,,CLR,0.89,0.00,VWS V14.01,2013-07-29 02:44:00,
2013-07-28 22:49:00,65.2,64.0,29.94,NW,306,0.0,0.0,96,0.00,,CLR,0.89,0.00,VWS V14.01,2013-07-29 02:49:00,
2013-07-28 22:54:00,65.1,63.9,29.94,NW,306,0.0,0.0,96,0.00,,CLR,0.89,0.00,VWS V14.01,2013-07-29 02:54:00,
2013-07-28 23:00:00,65.0,63.8,29.94,NW,306,0.0,0.0,96,0.00,,CLR,0.89,0.00,VWS V14.01,2013-07-29 03:00:00,
2013-07-28 23:05:00,64.9,63.7,29.94,NW,306,0.0,0.0,96,0.00,,CLR,0.89,0.00,VWS V14.01,2013-07-29 03:05:00,
2013-07-28 23:10:00,64.8,63.6,29.94,NW,306,0.0,0.0,96,0.00,,CLR,0.89,0.00,VWS V14.01,2013-07-29 03:10:00,
2013-07-28 23:15:00,64.7,63.8,29.94,NW,306,0.0,0.0,97,0.00,,CLR,0.89,0.00,VWS V14.01,2013-07-29 03:15:00,
2013-07-28 23:20:00,64.6,63.7,29.94,NW,306,0.0,0.0,97,0.00,,CLR,0.89,0.00,VWS V14.01,2013-07-29 03:20:00,
2013-07-28 23:25:00,64.5,63.6,29.95,NW,306,0.0,0.0,97,0.00,,CLR,0.89,0.00,VWS V14.01,2013-07-29 03:25:00,
2013-07-28 23:31:00,64.5,63.6,29.95,NW,306,0.0,0.0,97,0.00,,CLR,0.89,0.00,VWS V14.01,2013-07-29 03:31:00,
2013-07-28 23:36:00,64.4,63.5,29.95,NW,306,0.0,0.0,97,0.00,,CLR,0.89,0.00,VWS V14.01,2013-07-29 03:36:00,
2013-07-28 23:41:00,64.3,63.4,29.96,NW,306,0.0,0.0,97,0.00,,CLR,0.89,0.00,VWS V14.01,2013-07-29 03:41:00,
2013-07-28 23:47:00,64.3,63.4,29.96,NW,306,0.0,0.0,97,0.00,,CLR,0.89,0.00,VWS V14.01,2013-07-29 03:47:00,
2013-07-28 23:52:00,64.1,63.2,29.96,NW,306,0.0,0.0,97,0.00,,CLR,0.89,0.00,VWS V14.01,2013-07-29 03:52:00,
2013-07-28 23:57:00,64.0,63.1,29.96,NW,306,0.0,0.0,97,0.00,,CLR,0.89,0.00,VWS V14.01,2013-07-29 03:57:00,